This is the latest recevied weather packets stored in our database for station/object SP1BMW-13. If no packets are shown the sender has not sent any weather packets the latest 10 day(s).
| Time | Temp. | Humidity | Pressure | Rain* | Wind** | Luminosity | Snow |
|---|---|---|---|---|---|---|---|
| 1787795115 | 14.44° C | 80% | 1021.3 hPa | 0 mm | 0 m/s | 0 W/m² | - |
| 1787795054 | 14.44° C | 80% | 1021.4 hPa | 0 mm | 0 m/s | 0 W/m² | - |
| 1787794995 | 14.44° C | 80% | 1021.2 hPa | 0 mm | 0.45 m/s, 89° | 0 W/m² | - |
| 1787794935 | 14.44° C | 80% | 1021.4 hPa | 0 mm | 0 m/s | 0 W/m² | - |
| 1787794874 | 14.44° C | 79% | 1021.3 hPa | 0 mm | 0 m/s | 0 W/m² | - |
| 1787794814 | 14.44° C | 79% | 1021.4 hPa | 0 mm | 0.45 m/s, 108° | 0 W/m² | - |
| 1787794754 | 14.44° C | 80% | 1021.4 hPa | 0 mm | 0.89 m/s, 50° | 0 W/m² | - |
| 1787794695 | 14.44° C | 80% | 1021.4 hPa | 0 mm | 0.89 m/s, 82° | 0 W/m² | - |
| 1787794634 | 14.44° C | 80% | 1021.3 hPa | 0 mm | 0.89 m/s, 27° | 0 W/m² | - |
| 1787794574 | 14.44° C | 80% | 1021.4 hPa | 0 mm | 0.89 m/s, 40° | 0 W/m² | - |
| 1787794515 | 14.44° C | 80% | 1021.4 hPa | 0 mm | 0.45 m/s, 55° | 0 W/m² | - |
| 1787794454 | 14.44° C | 79% | 1021.3 hPa | 0 mm | 0.45 m/s, 67° | 0 W/m² | - |
| 1787794395 | 14.44° C | 79% | 1021.3 hPa | 0 mm | 0.45 m/s, 62° | 0 W/m² | - |
| 1787794335 | 14.44° C | 79% | 1021.5 hPa | 0 mm | 0.45 m/s, 61° | 0 W/m² | - |
| 1787794274 | 14.44° C | 79% | 1021.3 hPa | 0 mm | 0.89 m/s, 34° | 0 W/m² | - |
| 1787794214 | 14.44° C | 79% | 1021.4 hPa | 0 mm | 0.89 m/s, 55° | 0 W/m² | - |
| 1787794155 | 14.44° C | 79% | 1021.2 hPa | 0 mm | 0.89 m/s, 44° | 0 W/m² | - |
| 1787794095 | 14.44° C | 79% | 1021.2 hPa | 0 mm | 0.45 m/s, 50° | 0 W/m² | - |
| 1787794035 | 14.44° C | 79% | 1021.4 hPa | 0 mm | 0.45 m/s, 45° | 0 W/m² | - |
| 1787793975 | 14.44° C | 79% | 1021.3 hPa | 0 mm | 0.89 m/s, 87° | 0 W/m² | - |
| 1787793915 | 14.44° C | 79% | 1021.3 hPa | 0 mm | 0.89 m/s, 62° | 0 W/m² | - |
| 1787793855 | 14.44° C | 79% | 1021.2 hPa | 0 mm | 0.89 m/s, 90° | 0 W/m² | - |
| 1787793795 | 14.44° C | 79% | 1021.4 hPa | 0 mm | 0.45 m/s, 59° | 0 W/m² | - |
| 1787793735 | 14.44° C | 79% | 1021.5 hPa | 0 mm | 1.34 m/s, 62° | 0 W/m² | - |
| 1787793675 | 14.44° C | 79% | 1021.3 hPa | 0 mm | 0.45 m/s, 60° | 0 W/m² | - |
* Rain latest hour (hover to see other rain measurements)
** Current wind speed in m/s (hover to see current wind gust speed)